Tracking 27401 objects as of 4-Jun-2023
HD Live streaming from Space Station
objects crossing your sky now

FENGYUN 1C DEB

Track FENGYUN 1C DEB now!
10-day predictions


NORAD ID: 47100
Int'l Code: 1999-025FBY
Perigee: 711.4 km
Apogee: 892.6 km
Inclination: 99.0 °
Period: 100.8 minutes
Semi major axis: 7172 km
RCS: Unknown
Launch date: May 10, 1999
Source: People's Republic of China (PRC)
Launch site: Taiyaun Space Center, China (TSC)

Note: This is SATELLITE DEBRIS
Your satellite tracking list
Your tracking list is empty




NASA's NSSDC Master Catalog

Two Line Element Set (TLE):
1 47100U 99025FBY 23154.28721863  .00006335  00000-0  23106-2 0  9990
2 47100  98.9670 277.1516 0126302 195.7996 163.9229 14.29063558134836
Source of the keplerian elements: AFSPC